地平线卫星 9星 (GORIZONT 9)

导读

GORIZONT 9是独联体CIS继承自苏联的GORIZONT“地平线”系列通信卫星,1984年4月22日发射升空。该系列由苏联应用力学设计局研发,属于地球同步轨道通信卫星,质量约2300千克,设计寿命3年,最初服务于1980年莫斯科奥运会信号中继,后续纳入统一卫星通信系统,承担民用与军用通信中继任务,是苏联/俄罗斯卫星通信网络的重要组成部分。

Basic Information
目录编号:
14940
目录名称:
GORIZONT 9
国际标识:
1984-041A
轨道中心:
EARTH
卫星名称:
地平线卫星 9星
卫星全名:
地平线卫星 9星 (GORIZONT 9)
卫星状态:
在轨 (已飞行15396 天)
发射日期:
1984-04-22 UTC
国别 :
俄罗斯(独联体) (CIS)
星等 :
--
Orbit Information
数据来源 国际轨道数据 AOE轨道数据
星历时间 2026-06-16T23:29:46+0800
20小时前
查看轨道信息
2026-06-17T04:00:00+0800
15小时前
查看轨道信息
半长轴 42160.243km 42160.187km
偏心率 0.0005159 0.0005104
轨道倾角 8.749° 8.748°
近地点辐角 291.824° 292.319°
升交点赤经 312.368° 312.369°
平近点角 348.900° 56.158°
近地点 35760.355km 35760.531km
远地点 35803.857km 35803.569km
周期 1435.868分钟 1435.865分钟
每日圈数 1.002878 1.00288
Detailed Information
平衡模式:
三轴稳定
覆盖范围:
全球
运营商:
俄罗斯国家航天集团
运营商所在国:
俄罗斯
制造商(研发单位):
普里克拉德诺伊·梅哈尼基设计局
制造商所在国:
俄罗斯联邦
使用方式:
暂无
Satellite Introduction
地平线卫星(Gorizont)(俄语:Горизонт,Horizon),是1978年至2000年间发射的一系列(共35颗)俄罗斯(前苏联)地球同步通信卫星。该计划的启动是为了开发一个卫星系统来中继信号使全球覆盖1980年的莫斯科奥运会。 最初的四颗卫星是为了这个唯一目的而发射的。 此后,Gorizont系统被集成到YesSSS统一卫星通信系统中,用于中继民用和军用通信。 从1988年起,这些卫星还被用于支持Okean计划。该卫星已退役。
2D Orbit Map
3D Orbit Map
Orbit Altitude Analysis Chart
Orbit Inclination Analysis Chart
Orbit Comprehensive Analysis Chart
View Comprehensive Chart